Location: Emblem
(62.4273°N, 6.4710°E)
Time: 16:11:24
(UTC+01:00)

UWE-3 - Visible Passes

Search period start: 21 March 2023 00:00
Search period end: 31 March 2023 01:00
Orbit: 580 x 670 km, 97.7° (Epoch: 21 March)

Date Brightness Start Highest point End Pass type
(mag) Time Alt. Az. Time Alt. Az. Time Alt. Az.
21 Mar ? 02:17:27 10° NE 02:20:34 18° E 02:23:19 11° ESE visible
21 Mar ? 03:52:58 10° NNE 03:57:37 73° ESE 04:00:36 22° S visible
21 Mar ? 05:29:32 10° N 05:33:34 30° NW 05:37:32 10° WSW visible
22 Mar ? 02:35:59 10° NE 02:39:40 23° E 02:42:30 14° SE visible
22 Mar ? 04:11:50 10° NNE 04:16:29 86° WNW 04:19:45 19° SSW visible
23 Mar ? 02:54:38 10° NNE 02:58:42 30° E 03:01:39 16° SE visible
23 Mar ? 04:30:43 10° NNE 04:35:19 65° WNW 04:38:55 16° SW visible
24 Mar ? 03:13:21 10° NNE 03:17:42 39° E 03:20:48 17° SSE visible
24 Mar ? 04:49:37 10° NNE 04:54:05 50° WNW 04:58:04 12° SW visible
25 Mar ? 01:57:15 10° NE 01:59:18 13° ENE 02:01:21 10° ESE visible
25 Mar ? 03:32:06 10° NNE 03:36:38 53° E 03:39:56 17° S visible
25 Mar ? 05:08:31 10° N 05:12:47 39° WNW 05:16:58 10° SW visible
26 Mar ? 03:15:26 10° NE 03:18:25 17° E 03:21:22 10° ESE visible
26 Mar ? 04:50:53 10° NNE 04:55:30 71° ESE 04:59:03 16° S visible
26 Mar ? 06:27:26 10° N 06:31:28 31° NW 06:35:24 10° WSW visible
27 Mar ? 03:33:53 10° NE 03:37:28 22° E 03:40:53 10° SE visible
27 Mar ? 05:09:42 10° NNE 05:14:19 88° WNW 05:18:10 14° SSW visible
28 Mar ? 03:52:29 10° NNE 03:56:28 29° E 03:59:59 12° SSE visible
28 Mar ? 05:28:32 10° NNE 05:33:05 67° WNW 05:37:16 12° SSW visible
29 Mar ? 04:11:08 10° NNE 04:15:25 38° E 04:19:05 13° SSE visible
29 Mar ? 05:47:22 10° NNE 05:51:49 51° WNW 05:56:08 10° SW visible
30 Mar ? 02:55:08 10° NE 02:56:57 12° ENE 02:58:44 10° ESE visible
30 Mar ? 04:29:50 10° NNE 04:34:18 51° E 04:38:09 13° S visible
30 Mar ? 06:06:14 10° N 06:10:29 39° WNW 06:14:37 10° SW visible
